Location: Newark
(45.8944°N, 12.5886°E)
Time: 01:29:10
(UTC+00:00)

CUTE 1.7 + AOD 2 - Visible Passes

Search period start: 03 April 2020 00:00
Search period end: 13 April 2020 00:00
Orbit: 593 x 612 km, 97.6° (Epoch: 02 April)

Date Brightness Start Highest point End Pass type
(mag) Time Alt. Az. Time Alt. Az. Time Alt. Az.
03 Apr ? 03:08:27 10° ENE 03:10:09 12° E 03:11:51 10° ESE visible
04 Apr ? 03:19:33 10° NE 03:22:14 16° E 03:24:55 10° SE visible
05 Apr ? 03:31:01 10° NE 03:34:18 21° E 03:37:35 10° SE visible
06 Apr ? 03:42:39 10° NE 03:46:21 28° E 03:50:02 10° SSE visible
07 Apr ? 03:54:23 10° NNE 03:58:22 37° E 04:02:20 10° SSE visible
08 Apr ? 04:06:12 10° NNE 04:10:22 49° E 04:14:31 10° S visible
11 Apr ? 03:08:10 10° ENE 03:10:00 12° E 03:11:49 10° ESE visible
12 Apr ? 03:19:19 10° NE 03:22:04 17° E 03:24:49 10° SE visible
